TimeEST,TemperatureF,Dew PointF,Humidity,Sea Level PressureIn,VisibilityMPH,Wind Direction,Wind SpeedMPH,Gust SpeedMPH,PrecipitationIn,Events,Conditions,WindDirDegrees,DateUTC
12:53 AM,30.9,10.9,43,30.30,10.0,West,8.1,-,N/A,,Mostly Cloudy,280,2013-01-23 05:53:00
1:53 AM,30.0,10.0,43,30.31,10.0,West,8.1,-,N/A,,Partly Cloudy,270,2013-01-23 06:53:00
2:53 AM,28.9,10.9,47,30.31,10.0,West,8.1,-,N/A,,Clear,260,2013-01-23 07:53:00
3:53 AM,28.9,12.0,49,30.31,10.0,West,4.6,-,N/A,,Clear,270,2013-01-23 08:53:00
4:53 AM,28.0,12.0,51,30.31,10.0,West,3.5,-,N/A,,Clear,280,2013-01-23 09:53:00
5:53 AM,28.0,12.9,53,30.32,10.0,West,3.5,-,N/A,,Clear,280,2013-01-23 10:53:00
6:53 AM,28.0,15.1,58,30.33,10.0,West,4.6,-,N/A,,Overcast,260,2013-01-23 11:53:00
7:53 AM,28.0,12.9,53,30.35,10.0,Calm,Calm,-,N/A,,Mostly Cloudy,0,2013-01-23 12:53:00
8:53 AM,30.9,16.0,54,30.35,10.0,West,3.5,-,N/A,,Clear,280,2013-01-23 13:53:00
9:53 AM,35.1,16.0,46,30.36,10.0,WSW,6.9,-,N/A,,Clear,250,2013-01-23 14:53:00
10:53 AM,39.0,17.1,41,30.36,10.0,WNW,9.2,-,N/A,,Clear,290,2013-01-23 15:53:00
11:53 AM,43.0,19.9,40,30.34,10.0,West,9.2,17.3,N/A,,Clear,280,2013-01-23 16:53:00
12:53 PM,45.0,21.0,39,30.30,10.0,West,13.8,19.6,N/A,,Mostly Cloudy,260,2013-01-23 17:53:00
1:53 PM,46.0,25.0,44,30.27,10.0,WNW,15.0,25.3,N/A,,Clear,290,2013-01-23 18:53:00
2:53 PM,46.9,25.0,42,30.25,10.0,WNW,13.8,21.9,N/A,,Clear,290,2013-01-23 19:53:00
3:53 PM,48.0,23.0,37,30.24,10.0,West,10.4,-,N/A,,Clear,280,2013-01-23 20:53:00
4:53 PM,46.9,24.1,41,30.22,10.0,WSW,10.4,-,N/A,,Clear,240,2013-01-23 21:53:00
5:53 PM,46.0,25.0,44,30.22,10.0,West,6.9,-,N/A,,Clear,270,2013-01-23 22:53:00
6:53 PM,42.1,25.0,51,30.22,10.0,West,5.8,-,N/A,,Clear,260,2013-01-23 23:53:00
7:53 PM,43.0,26.1,51,30.20,10.0,WNW,3.5,-,N/A,,Clear,290,2013-01-24 00:53:00
8:53 PM,41.0,26.1,55,30.21,10.0,Calm,Calm,-,N/A,,Clear,0,2013-01-24 01:53:00
10:53 PM,44.1,30.0,58,30.17,10.0,West,6.9,-,N/A,,Overcast,280,2013-01-24 03:53:00
11:34 PM,44.6,32.0,61,30.16,10.0,West,9.2,-,N/A,,Overcast,270,2013-01-24 04:34:00